Starlink 32545

operational
NORAD ID: 62135 Int'l Des: 2024-222 Owner: SPXS Country: US Constellation: starlink
LEOCIRCULAR

Über Starlink 32545

Beschreibung wird geladen...

Live-Position

3D-Globus wird geladen...

Nächste Überflüge

Höhenverlauf

Altitude vs Time

uPlot chart will show altitude changes over time

Zweizeiliger Elementsatz

1 62135U 24222X 25259.10318862 .00012636 00000-0 46754-3 0 9998
2 62135 43.0049 42.5468 0001769 268.0058 92.0591 15.27606398 46092
Epoch: 16. Sept. 2025 • Age: 8 hours

Aktueller Status

Höhe 486.5 km
Geschwindigkeit 7.63 km/s
Subsatellitenpunkt 39.67°N, 52.17°W
Startdatum 27. Nov. 2024
Alter 0.8 years
Typ internet

Technische Details

Klassifizierung Payload
Masse 730.00 kg
Trockenmasse 700.00 kg
Gesamtmasse 730.00 kg
Länge 0.30 m
Durchmesser 4.10 m
Spannweite 29.00 m
Form Box + pan
Hersteller SPXS
Bus-Typ Starlink V2M
Phasenstatus In Orbit
Besitzer/Staat SPXS/US

Große Konstellationen

Loading constellations...